GW2897 Weather Reports


Display with metric or nautical units.
time (UTC)temp
F
wind
direction
speed
MPH
gust
MPH
rain 1hr
in
rain 24hr
in
rain mn
in
humidity
%
barometer
mb
20260510000904 68 241 1.0 3.0 0.00 0.00 0.00 87 1011.1
20260510000012 68 254 0.0 1.0 0.00 0.00 0.00 87 1011.1
20260509235404 68 0 0.0 0.0 0.00 0.00 0.00 87 1010.9
20260509234503 68 257 0.0 1.0 0.00 0.00 0.00 86 1010.9
20260509233604 69 299 0.0 1.0 0.00 0.00 0.00 86 1010.8
20260509232703 69 260 1.0 7.0 0.00 0.00 0.00 85 1010.7
20260509231805 69 256 1.0 7.0 0.00 0.00 0.00 85 1010.6
20260509230903 70 272 1.0 4.0 0.00 0.00 0.00 84 1010.6
20260509230010 70 274 1.0 4.0 0.00 0.00 0.00 84 1010.6
20260509225404 70 269 2.0 6.0 0.00 0.00 0.00 84 1010.6
20260509224504 70 271 2.0 6.0 0.00 0.00 0.00 83 1010.5
20260509223646 70 260 2.0 6.0 0.00 0.00 0.00 83 1010.5
20260509222725 71 274 2.0 10.0 0.00 0.00 0.00 83 1010.2
20260509221825 71 260 4.0 8.0 0.00 0.00 0.00 82 1010.3
20260509220914 71 261 2.0 7.0 0.00 0.00 0.00 82 1010.3
20260509220004 72 266 1.0 3.0 0.00 0.00 0.00 82 1010.2
20260509215403 72 264 1.0 3.0 0.00 0.00 0.00 82 1010.3
20260509214525 71 265 2.0 6.0 0.00 0.00 0.00 82 1010.3
20260509213603 71 255 3.0 10.0 0.00 0.00 0.00 82 1010.1
20260509212705 71 266 2.0 7.0 0.00 0.00 0.00 82 1010.1
20260509211804 71 278 2.0 7.0 0.00 0.00 0.00 81 1010.2
20260509210903 71 259 3.0 6.0 0.00 0.00 0.00 81 1010.3
20260509210025 71 250 2.0 6.0 0.00 0.00 0.00 82 1010.3
20260509205404 71 260 3.0 8.0 0.00 0.00 0.00 82 1010.3
20260509204503 71 279 3.0 8.0 0.00 0.00 0.00 81 1010.4
20260509203619 71 257 3.0 8.0 0.00 0.00 0.00 81 1010.4
20260509202704 71 263 4.0 11.0 0.00 0.00 0.00 82 1010.4
20260509201804 72 245 3.0 8.0 0.00 0.00 0.00 80 1010.7
20260509200924 71 257 4.0 10.0 0.00 0.00 0.00 81 1010.8
20260509200004 71 268 5.0 13.0 0.00 0.00 0.00 81 1011.0
20260509195403 71 272 4.0 13.0 0.00 0.00 0.00 81 1010.9
20260509194524 71 276 3.0 9.0 0.00 0.00 0.00 81 1010.9
20260509193605 71 268 3.0 11.0 0.00 0.00 0.00 80 1011.0
20260509192705 72 270 2.0 6.0 0.00 0.00 0.00 81 1011.1
20260509191803 71 255 2.0 7.0 0.00 0.00 0.00 81 1011.3
20260509190916 71 275 2.0 6.0 0.00 0.00 0.00 82 1011.2
20260509190004 70 279 2.0 6.0 0.00 0.00 0.00 82 1011.2
20260509185403 70 270 2.0 8.0 0.00 0.00 0.00 82 1011.4
20260509184515 70 260 1.0 5.0 0.00 0.00 0.00 83 1011.3
20260509183604 69 260 2.0 7.0 0.00 0.00 0.00 82 1011.2
20260509182703 70 261 1.0 5.0 0.00 0.00 0.00 82 1011.5
20260509181803 70 273 2.0 5.0 0.00 0.00 0.00 82 1011.5
20260509180924 70 277 2.0 7.0 0.00 0.00 0.00 81 1011.3
20260509180004 70 261 2.0 6.0 0.00 0.00 0.00 82 1011.3
20260509175403 70 269 3.0 5.0 0.00 0.00 0.00 81 1011.4
20260509174525 70 292 3.0 6.0 0.00 0.00 0.00 81 1011.3
20260509173603 70 258 2.0 6.0 0.00 0.00 0.00 80 1011.3
20260509172726 70 277 2.0 6.0 0.00 0.00 0.00 80 1011.4
20260509171817 70 243 2.0 5.0 0.00 0.00 0.00 81 1011.6
20260509170903 70 281 2.0 5.0 0.00 0.00 0.00 81 1011.5
20260509170004 70 288 3.0 7.0 0.00 0.00 0.00 81 1011.6
20260509165403 70 288 3.0 8.0 0.00 0.00 0.00 80 1011.6
20260509164505 70 269 2.0 8.0 0.00 0.00 0.00 80 1011.7
20260509163603 70 256 2.0 6.0 0.00 0.00 0.00 79 1011.8
20260509162703 70 261 2.0 6.0 0.00 0.00 0.00 80 1011.8
20260509161804 70 233 2.0 4.0 0.00 0.00 0.00 80 1011.9
20260509160903 70 145 2.0 5.0 0.00 0.00 0.00 81 1012.0
20260509160004 69 239 2.0 9.0 0.00 0.00 0.00 81 1011.8
20260509155423 69 268 2.0 7.0 0.00 0.00 0.00 81 1012.0
20260509154504 69 278 2.0 8.0 0.00 0.00 0.00 81 1012.1
20260509153604 69 221 3.0 8.0 0.00 0.00 0.00 81 1012.1
20260509152703 69 268 2.0 11.0 0.00 0.00 0.00 81 1012.1
20260509151804 69 146 3.0 9.0 0.00 0.00 0.00 82 1012.0
20260509150925 69 187 2.0 7.0 0.00 0.00 0.00 80 1011.9
20260509150025 69 212 3.0 8.0 0.00 0.00 0.00 83 1011.8
20260509145405 68 234 3.0 8.0 0.00 0.00 0.00 84 1011.9
20260509144525 68 143 3.0 8.0 0.00 0.00 0.00 83 1012.0
20260509143603 67 258 2.0 6.0 0.00 0.00 0.00 84 1012.1
20260509142703 67 269 2.0 8.0 0.00 0.00 0.00 85 1012.1
20260509141803 67 217 2.0 8.0 0.00 0.00 0.00 85 1012.1
20260509140924 66 166 2.0 6.0 0.00 0.00 0.00 86 1012.1
20260509140004 66 120 1.0 7.0 0.00 0.00 0.00 86 1012.4
20260509135404 65 130 1.0 5.0 0.00 0.00 0.00 87 1012.4
20260509134503 65 269 1.0 3.0 0.00 0.00 0.00 88 1012.4
20260509133626 65 265 1.0 5.0 0.00 0.00 0.00 88 1012.3
20260509132725 65 153 0.0 3.0 0.00 0.00 0.00 88 1012.3
20260509131803 64 178 1.0 6.0 0.00 0.00 0.00 89 1012.2
20260509130927 64 185 0.0 3.0 0.00 0.00 0.00 88 1012.1
20260509130004 64 139 1.0 5.0 0.00 0.00 0.00 90 1012.1
20260509125404 63 126 1.0 5.0 0.00 0.00 0.00 89 1012.0
20260509124504 63 112 0.0 3.0 0.00 0.00 0.00 91 1012.0
20260509123603 62 122 1.0 3.0 0.00 0.00 0.00 92 1012.0
20260509122724 62 150 1.0 4.0 0.00 0.00 0.00 92 1012.0
20260509121804 62 145 1.0 5.0 0.00 0.00 0.00 93 1012.3
20260509120918 61 141 0.0 4.0 0.00 0.00 0.00 94 1012.3
20260509120004 61 117 1.0 4.0 0.00 0.00 0.00 95 1012.1
20260509115403 60 124 0.0 4.0 0.00 0.00 0.00 95 1012.2
20260509114505 60 150 0.0 2.0 0.00 0.00 0.00 95 1012.3
20260509113624 60 136 0.0 2.0 0.00 0.00 0.00 96 1012.2
20260509112703 59 109 0.0 3.0 0.00 0.00 0.00 96 1012.2
20260509111803 58 126 0.0 4.0 0.00 0.00 0.00 96 1012.3
20260509110909 58 120 0.0 1.0 0.00 0.00 0.00 96 1012.5
20260509110004 58 130 0.0 1.0 0.00 0.00 0.00 96 1012.7
20260509105407 57 109 0.0 1.0 0.00 0.00 0.00 97 1012.7
20260509104504 57 122 0.0 1.0 0.00 0.00 0.00 96 1012.5
20260509103624 56 0 0.0 0.0 0.00 0.00 0.00 96 1012.3
20260509102704 55 0 0.0 0.0 0.00 0.00 0.00 96 1012.4
20260509101803 55 0 0.0 0.0 0.00 0.00 0.00 96 1012.5
20260509100903 54 0 0.0 0.0 0.00 0.00 0.00 95 1012.4
20260509100004 55 342 0.0 1.0 0.00 0.00 0.00 95 1012.0
20260509095403 56 115 0.0 2.0 0.00 0.00 0.00 96 1011.6
20260509094504 56 133 0.0 1.0 0.00 0.00 0.00 96 1011.3
20260509093617 54 0 0.0 0.0 0.00 0.00 0.00 95 1011.2
20260509092703 55 0 0.0 0.0 0.00 0.00 0.00 95 1011.4
20260509091804 55 0 0.0 0.0 0.00 0.00 0.00 95 1011.2
20260509090904 55 0 0.0 0.0 0.00 0.00 0.00 95 1011.5
20260509090003 56 0 0.0 0.0 0.00 0.00 0.00 95 1011.5
20260509085403 56 0 0.0 0.0 0.00 0.00 0.00 95 1011.4
20260509084503 56 0 0.0 0.0 0.00 0.00 0.00 95 1011.3
20260509083604 56 0 0.0 0.0 0.00 0.00 0.00 95 1011.1
20260509082703 55 0 0.0 0.0 0.00 0.00 0.00 95 1011.2
20260509081803 55 145 0.0 1.0 0.00 0.00 0.00 95 1011.3
20260509080905 55 0 0.0 0.0 0.00 0.00 0.00 95 1011.5
20260509080004 55 0 0.0 0.0 0.00 0.00 0.00 95 1011.4
20260509075403 55 0 0.0 0.0 0.00 0.00 0.00 95 1011.5
20260509074508 55 0 0.0 0.0 0.00 0.00 0.00 95 1011.7
20260509073605 55 0 0.0 0.0 0.00 0.00 0.00 94 1011.9
20260509072703 55 0 0.0 0.0 0.00 0.00 0.00 94 1011.9
20260509071803 56 0 0.0 0.0 0.00 0.00 0.00 94 1012.0
20260509070903 56 0 0.0 0.0 0.00 0.00 0.00 94 1012.1
20260509070003 56 0 0.0 0.0 0.00 0.00 0.00 94 1012.2
20260509065404 55 0 0.0 0.0 0.00 0.00 0.00 94 1012.4
20260509064504 56 0 0.0 0.0 0.00 0.00 0.00 94 1012.3
20260509063603 56 0 0.0 0.0 0.00 0.00 0.00 94 1012.6
20260509062724 56 0 0.0 0.0 0.00 0.00 0.00 93 1012.5
20260509061803 56 0 0.0 0.0 0.00 0.00 0.00 93 1012.7
20260509060904 56 0 0.0 0.0 0.00 0.00 0.00 93 1012.8
20260509060004 57 0 0.0 0.0 0.00 0.00 0.00 92 1013.1
20260509055406 57 0 0.0 0.0 0.00 0.00 0.00 92 1013.2
20260509054503 58 0 0.0 0.0 0.00 0.00 0.00 91 1013.4
20260509053604 58 0 0.0 0.0 0.00 0.00 0.00 91 1013.3
20260509052725 58 0 0.0 0.0 0.00 0.00 0.00 91 1013.6
20260509051803 58 0 0.0 0.0 0.00 0.00 0.00 91 1013.8
20260509050903 58 0 0.0 0.0 0.00 0.00 0.00 91 1014.0
20260509050011 58 0 0.0 0.0 0.00 0.00 0.00 92 1013.9
20260509045403 58 0 0.0 0.0 0.00 0.00 0.00 91 1013.9
20260509044524 59 0 0.0 0.0 0.00 0.00 0.00 91 1013.8
20260509043603 59 0 0.0 0.0 0.00 0.00 0.00 90 1013.8
20260509042703 59 0 0.0 0.0 0.00 0.00 0.00 91 1013.9
20260509041824 59 145 0.0 1.0 0.00 0.00 0.00 91 1014.1
20260509040903 59 118 0.0 1.0 0.00 0.00 0.00 91 1014.1
20260509040004 59 118 0.0 1.0 0.00 0.00 0.00 92 1014.2
20260509035403 59 0 0.0 0.0 0.00 0.00 0.00 92 1014.2
20260509034525 59 0 0.0 0.0 0.00 0.00 0.00 91 1014.4
20260509033603 59 0 0.0 0.0 0.00 0.00 0.00 91 1014.4
20260509032703 59 0 0.0 0.0 0.00 0.00 0.00 91 1014.5
20260509031805 59 0 0.0 0.0 0.00 0.00 0.00 91 1014.6
20260509030952 59 0 0.0 0.0 0.00 0.00 0.00 90 1014.7
20260509030006 59 0 0.0 0.0 0.00 0.00 0.00 90 1014.4
20260509025404 59 0 0.0 0.0 0.00 0.00 0.00 90 1014.4
20260509024505 59 0 0.0 0.0 0.00 0.00 0.00 89 1014.3
20260509023604 60 120 0.0 1.0 0.00 0.00 0.00 89 1014.3
20260509022704 60 0 0.0 0.0 0.00 0.00 0.00 88 1014.4
20260509021804 60 0 0.0 0.0 0.00 0.00 0.00 88 1014.4
20260509020906 60 0 0.0 0.0 0.00 0.00 0.00 88 1014.3
20260509020005 61 120 0.0 1.0 0.00 0.00 0.00 88 1014.3
20260509015404 61 120 0.0 1.0 0.00 0.00 0.00 87 1014.3
20260509014505 61 0 0.0 0.0 0.00 0.00 0.00 87 1014.4
20260509013605 61 121 0.0 1.0 0.00 0.00 0.00 87 1014.2
20260509012705 61 0 0.0 0.0 0.00 0.00 0.00 86 1014.3
20260509011805 61 0 0.0 0.0 0.00 0.00 0.00 86 1014.1
20260509010905 61 0 0.0 0.0 0.00 0.00 0.00 86 1014.0
20260509010005 61 0 0.0 0.0 0.00 0.00 0.00 87 1014.0
20260509005405 62 0 0.0 0.0 0.00 0.00 0.00 86 1013.9
20260509004535 62 0 0.0 0.0 0.00 0.00 0.00 85 1013.8
20260509003626 62 0 0.0 0.0 0.00 0.00 0.00 84 1013.9
20260509002704 62 0 0.0 0.0 0.00 0.00 0.00 84 1014.1
20260509001804 63 116 0.0 1.0 0.00 0.00 0.00 85 1014.0